Flag for Portugal Weather past 2 weeks in Loures, Portugal

Now
55 °F

Passing clouds.


Feels Like: 55 °F
Forecast: 52 / 66 °F
Wind: 2 mph from North

Location: Lisbon Portela Airport


UV Index: 5 (Moderate)

Visibility: N/A


Pressure: 29.65 "Hg

Humidity: 82%

Dew point: 50 °F

Location of LouresLocation

Historic Weather in Loures

°F

Loures temperature yesterday

Maximum temperature yesterday: 63 °F (at 4:00 PM)
Minimum temperature yesterday: 54 °F (at 6:30 AM)
Average temperature yesterday: 57 °F

Past Weeks' High & Low Weather Summary

 TemperatureHumidityPressure
High77 °F (Apr 8, 3:00 PM)100% (Apr 6, 1:00 AM)30.18 "Hg (Apr 6, 1:00 AM)
Low50 °F (Apr 6, 3:30 AM)44% (Apr 8, 2:30 PM)29.59 "Hg (Apr 20, 3:30 PM)
Average61 °F80%29.98 "Hg
* Reported Apr 6 1:00 AM — Apr 21 1:00 AM, Loures, Weather by CustomWeather, © 2014

Note: Actual official high and low records may vary slightly from our data, if they occured in-between our weather recording intervals... More about our weather records

Advertising

Historic Weather Conditions — Data for Previous 24 hours

 ConditionsComfort  
Time TempWeatherWind HumidityBarometerVisibility
1:00 AM
Apr 21
54 °FPassing clouds.6 mph94%29.65 "HgN/A
12:30 AM55 °FPassing clouds.6 mph82%29.65 "HgN/A
12:00 AM55 °FPassing clouds.6 mph88%29.65 "HgN/A
11:30 PM
Apr 20
55 °FPassing clouds.5 mph88%29.65 "HgN/A
11:00 PM55 °FPassing clouds.6 mph94%29.65 "HgN/A
10:00 PM57 °FPassing clouds.6 mph88%29.65 "HgN/A
9:30 PM57 °FPassing clouds.6 mph82%29.62 "HgN/A
9:00 PM57 °FPassing clouds.6 mph82%29.62 "HgN/A
8:30 PM57 °FPassing clouds.6 mph82%29.62 "HgN/A
8:00 PM57 °FPassing clouds.5 mph82%29.59 "HgN/A
7:30 PM57 °FLight rain. Scattered clouds.5 mph88%29.59 "HgN/A
7:00 PM57 °FPartly sunny.5 mph88%29.59 "HgN/A
6:30 PM57 °FScattered showers. Partly sunny.5 mph77%29.59 "HgN/A
6:00 PM59 °FScattered showers. Partly sunny.9 mph72%29.59 "HgN/A
5:30 PM59 °FScattered showers. Partly sunny.5 mph77%29.59 "HgN/A
5:00 PM63 °FScattered showers. Partly sunny.5 mph64%29.59 "HgN/A
4:30 PM63 °FScattered showers. Passing clouds.6 mph68%29.59 "HgN/A
4:00 PM63 °FPartly sunny.8 mph73%29.59 "HgN/A
3:30 PM61 °FPartly sunny.6 mph83%29.59 "HgN/A
3:00 PM61 °FPartly sunny.6 mph88%29.62 "HgN/A
2:30 PM61 °FLight rain. Partly sunny.2 mph88%29.62 "HgN/A
2:00 PM59 °FLight rain. Partly sunny.5 mph88%29.62 "HgN/A
1:30 PM59 °FLight rain. Partly sunny.6 mph88%29.65 "Hg5 mi
1:00 PM59 °FLight rain. Partly sunny.6 mph82%29.65 "Hg4 mi
12:30 PM59 °FPartly sunny.5 mph82%29.65 "HgN/A
12:00 PM59 °FPartly sunny.6 mph82%29.65 "HgN/A
11:30 AM57 °FPartly sunny.6 mph94%29.68 "HgN/A
11:00 AM57 °FBroken clouds.8 mph88%29.68 "HgN/A
10:30 AM55 °FPartly sunny.10 mph94%29.68 "HgN/A
10:00 AM55 °FPartly sunny.8 mph94%29.68 "HgN/A
9:30 AM54 °FPartly sunny.8 mph100%29.68 "HgN/A
9:00 AM54 °FPartly sunny.9 mph100%29.68 "HgN/A
8:30 AM54 °FPartly sunny.7 mph100%29.68 "HgN/A
8:00 AM54 °FLight rain. Partly sunny.6 mph100%29.68 "Hg4 mi
7:30 AM54 °FRain showers. Fog.6 mph100%29.68 "Hg2 mi
7:00 AM54 °FThundershowers. Partly cloudy.5 mph100%29.68 "Hg3 mi
6:30 AM54 °FThundershowers. Partly cloudy.5 mph100%29.68 "Hg4 mi
6:00 AM55 °FThundershowers. Partly cloudy.7 mph94%29.68 "HgN/A
5:30 AM55 °FPartly cloudy.6 mph94%29.68 "HgN/A
5:00 AM55 °FThundershowers. Partly cloudy.6 mph94%29.68 "HgN/A
4:30 AM57 °FPartly cloudy.6 mph88%29.71 "HgN/A
4:00 AM55 °FPassing clouds.5 mph94%29.71 "HgN/A
3:30 AM55 °FScattered showers. Partly cloudy.5 mph94%29.74 "HgN/A
3:00 AM55 °FPartly cloudy.3 mph94%29.74 "HgN/A
2:30 AM55 °FPassing clouds.6 mph94%29.77 "HgN/A
2:00 AM57 °FPassing clouds.1 mph88%29.77 "HgN/A
Weather by CustomWeather, © 2014

See weather overview